Terminal Aerodrome Forecast
Issued by NWS

Home | Current Version | Previous Version | Text Only | Print | Product List | Glossary On
Versions: 1 2 3 4 5 6 7 8 9 10 11 12 13 14 15 16
000
FTUS41 KBTV 020200 AAA
TAFRUT
TAF AMD
KRUT 020240Z 0203/0224 36004KT 6SM BR BKN010 OVC025
     FM020600 12008KT P6SM OVC008
     FM021500 11004KT P6SM OVC040
     FM021800 17006KT P6SM BKN040
      AMD LTD TO CLD VIS AND WIND=

USA.gov is the U.S. government's official web portal to all federal, state and local government web resources and services.